Location: Boursonne
(49.2024°N, 3.0468°E)
Time: 11:17:15
(UTC+00:00)

Resurs 1-3 - Pass Details

Date: 03 March 2021
Orbit: 629 x 633 km, 97.9° (Epoch: 11 April)

Event Time Altitude Azimuth Distance (km) Brightness Sun altitude
Exits shadow 19:38:48 56° 98° (E) 757 3.6 -21.0°
Maximum altitude 19:39:12 59° 72° (ENE) 736 3.6 -21.0°
Drops below altitude 10° 19:43:33 10° 353° (N) 2,028 6.5 -21.7°
Sets 19:45:47 0° 350° (N) 2,941 7.4 -22.1°
